Simultaneous Nadir Overpasses (SNOs) Predictions

Prediction of SNOs between LANDSAT-8 and NOAA-19 Satellite Orbit:

Table of predicted SNOs for the next 14.0 days since TLE Epoch: 2/1/2025
Index Date (LANDSAT-8) Time (LANDSAT-8) Lat,Lon (LANDSAT-8) SZA (LANDSAT-8 ) Date (NOAA-19) Time (NOAA-19) Lat,Lon (NOAA-19) SZA (NOAA-19 ) Distance(km) Time Diff (sec)
1 02/01/2025 13:05:59 -79.77,-170.82 82.62 02/01/2025 13:04:57 -79.77,-170.81 82.64 0.24 62
2 02/01/2025 13:55:22 79.88, -2.32 97.53 02/01/2025 13:55:46 79.87, -2.41 97.52 2.00 24
3 02/03/2025 20:18:34 79.80, -98.74 96.75 02/03/2025 20:18:07 79.80, -98.74 96.74 0.20 27
4 02/03/2025 21:07:58 -79.91, 69.76 83.11 02/03/2025 21:09:07 -79.91, 69.72 83.09 0.67 69
5 02/06/2025 03:31:10 -79.85, -26.54 83.89 02/06/2025 03:31:28 -79.86, -26.39 83.86 3.06 18
6 02/08/2025 09:54:22 -79.76,-122.98 84.72 02/08/2025 09:53:50 -79.77,-122.88 84.72 2.23 32
7 02/08/2025 10:43:44 79.90, 45.74 95.47 02/08/2025 10:44:38 79.90, 45.86 95.50 2.48 54
8 02/10/2025 17:06:56 79.79, -50.90 94.58 02/10/2025 17:07:01 79.78, -50.95 94.57 1.34 5
9 02/12/2025 23:30:07 79.70,-147.40 93.69 02/12/2025 23:29:23 79.68,-147.51 93.67 2.58 44



Historial Predications of SNOs between LANDSAT-8 and NOAA-19
